Probability
13 35 68 55 65 58 61 61 61 68 61 61 61 61 65 74 77 77 74 71 74 77 71 71 77 68 71 77 74 74 77 81 74 74 68 68 68 65 71 68 42 39 55
10 39 71 71 68 65 65 68 71 65 61 61 58 61 65 65 65 74 71 74 68 71 65 71 71 68 68 71 71 71 68 68 71 61 58 61 68 65 65 58 45 35 55
13 29 61 71 68 68 61 61 68 71 71 68 65 61 65 65 65 65 65 77 71 74 71 68 68 61 71 65 58 71 74 68 61 55 52 29 29 48 48 58 55 55 48
10 19 39 68 74 71 68 65 68 65 71 68 61 61 61 61 61 65 65 68 71 71 71 71 65 61 58 52 55 61 58 58 55 39 19 16 13 39 52 55 65 45 52
6 23 52 71 77 71 68 65 58 65 65 71 68 68 65 65 61 61 61 58 58 58 61 61 58 55 52 42 55 48 48 52 55 35 6 0 6 29 45 48 55 52 48
3 26 52 74 77 74 65 65 65 61 61 61 68 65 61 61 61 61 61 58 58 61 55 61 61 55 45 42 45 42 45 48 35 6 10 3 6 26 32 42 48 52 42
10 29 52 71 77 77 74 68 61 58 61 58 61 65 65 52 61 58 55 61 61 61 55 55 55 55 48 48 45 45 52 58 26 6 3 3 6 32 42 58 61 52 35
19 26 45 81 68 65 71 74 65 58 58 55 55 58 55 55 58 55 45 48 58 55 52 52 52 42 48 45 45 52 52 39 16 6 6 10 19 42 52 58 58 55 32
16 26 32 42 58 68 68 65 58 61 58 61 52 61 55 48 55 68 61 61 61 61 52 48 42 32 39 42 45 61 55 48 13 3 3 10 35 52 52 48 52 48 42
16 16 16 16 23 32 39 65 61 61 58 58 55 55 68 65 58 61 65 55 55 58 61 58 55 52 48 42 55 58 48 35 6 3 6 16 45 58 48 48 45 39 39
13 16 16 16 16 16 23 35 48 65 61 58 58 65 61 29 39 35 42 58 55 61 65 58 58 55 65 61 65 61 39 19 13 6 6 26 58 61 61 52 48 42 39
13 13 13 16 13 13 10 19 19 23 26 19 19 26 26 16 16 35 48 71 71 74 71 71 68 65 58 26 29 39 16 13 10 10 13 52 45 52 58 52 42 29 26
13 13 10 10 10 10 10 10 13 13 16 16 16 19 16 19 13 16 19 19 48 58 39 35 45 32 23 10 6 6 10 13 13 16 19 52 45 45 52 48 29 29 29
13 16 10 10 10 10 10 10 13 13 26 23 23 23 16 16 16 16 10 16 16 13 19 19 13 13 13 6 6 6 10 10 10 10 13 42 42 45 42 48 35 26 32
6 13 13 10 10 6 10 16 13 16 16 19 29 26 13 16 19 19 16 16 23 19 13 10 10 10 6 10 6 6 6 10 6 3 10 35 35 42 42 52 52 35 35
3 13 10 10 10 13 13 13 13 19 19 19 19 26 13 19 19 13 13 13 16 19 16 16 10 13 6 6 6 6 6 3 6 6 6 23 39 42 52 48 52 45 48
6 16 13 16 16 10 10 13 13 19 23 10 19 26 16 16 19 16 10 16 13 13 16 13 13 13 13 6 6 6 3 6 10 6 6 3 13 42 52 52 52 55 61
6 19 16 23 16 16 16 19 16 23 19 16 10 13 16 16 13 16 10 13 16 16 13 16 13 13 13 10 3 3 3 6 6 6 10 3 3 13 29 42 61 65 61
10 13 13 13 13 19 23 19 23 26 23 19 19 16 16 19 16 13 16 16 16 16 16 16 16 16 19 10 10 3 3 6 6 6 6 6 6 6 6 19 55 52 58
13 13 10 16 19 19 16 26 32 29 23 26 26 23 26 23 23 16 16 16 19 13 10 13 19 16 16 13 16 10 13 13 10 6 6 6 10 6 6 3 13 32 58
19 23 23 23 16 10 23 26 29 29 23 26 26 23 23 26 26 19 23 23 23 19 16 13 19 19 19 16 13 6 6 10 10 13 10 10 6 6 3 6 6 10 13
32 26 19 23 23 26 23 19 23 26 29 32 35 26 29 23 26 23 23 26 29 23 23 19 23 19 13 19 16 10 3 6 10 6 6 6 6 6 6 10 3 6 6
32 32 35 32 32 35 32 29 29 26 26 32 29 29 29 26 26 26 19 26 29 32 29 29 26 19 19 16 13 10 3 3 10 6 3 3 6 6 6 10 6 3 6
32 35 39 39 35 35 35 32 32 23 26 23 32 32 29 26 23 23 26 29 26 32 29 29 26 19 19 16 16 3 3 6 10 6 0 0 6 6 6 6 10 6 10
39 39 39 32 32 35 32 32 29 26 26 26 29 32 26 26 23 23 23 29 32 32 32 29 26 23 19 16 19 16 10 6 6 6 0 0 0 0 0 3 3 3 6
35 39 35 32 35 35 32 29 35 29 29 26 29 35 32 19 19 19 26 26 32 35 32 29 23 29 23 19 16 16 13 6 6 3 0 0 0 0 0 0 0 3 10
Height
5893 5892 5892 5892 5892 5892 5892 5892 5892 5892 5893 5894 5895 5895 5896 5896 5897 5897 5898 5898 5898 5898 5898 5898 5898 5898 5898 5897 5897 5896 5896 5895 5895 5895 5895 5894 5893 5893 5893 5892 5892 5892 5891
5894 5893 5893 5893 5894 5894 5894 5894 5894 5894 5895 5895 5896 5896 5897 5897 5898 5898 5898 5899 5899 5899 5899 5899 5899 5898 5898 5897 5897 5896 5896 5895 5895 5894 5894 5893 5893 5893 5892 5892 5891 5891 5891
5895 5895 5895 5895 5895 5895 5895 5895 5895 5896 5896 5897 5897 5897 5898 5898 5898 5899 5899 5900 5900 5900 5900 5900 5899 5899 5898 5898 5897 5896 5896 5895 5895 5894 5893 5893 5893 5892 5891 5891 5891 5890 5890
5896 5896 5896 5896 5896 5897 5897 5897 5897 5897 5897 5898 5898 5898 5899 5899 5899 5900 5900 5900 5900 5900 5900 5900 5899 5899 5898 5898 5897 5897 5896 5895 5894 5894 5893 5892 5892 5891 5891 5890 5890 5890 5890
5897 5897 5898 5898 5898 5898 5898 5898 5898 5898 5899 5899 5899 5899 5900 5900 5900 5900 5901 5901 5901 5901 5900 5900 5900 5899 5899 5898 5897 5897 5896 5895 5894 5894 5893 5892 5891 5890 5890 5890 5889 5889 5888
5899 5899 5899 5899 5899 5899 5899 5899 5899 5899 5900 5900 5900 5900 5901 5901 5901 5901 5901 5901 5901 5901 5901 5900 5900 5899 5899 5898 5897 5897 5896 5895 5894 5893 5892 5891 5891 5890 5889 5889 5889 5888 5888
5900 5900 5900 5900 5900 5900 5900 5900 5900 5900 5900 5900 5901 5901 5901 5902 5902 5902 5902 5902 5901 5901 5901 5900 5900 5899 5899 5898 5897 5896 5895 5894 5893 5892 5892 5891 5890 5889 5888 5888 5887 5887 5887
5901 5901 5901 5901 5901 5901 5902 5901 5901 5901 5902 5901 5901 5902 5902 5902 5902 5902 5902 5902 5901 5901 5901 5900 5900 5899 5898 5897 5897 5896 5895 5894 5893 5892 5891 5890 5889 5888 5887 5886 5886 5886 5886
5902 5902 5902 5903 5903 5903 5902 5902 5902 5902 5902 5902 5902 5902 5902 5902 5902 5902 5902 5902 5901 5901 5900 5900 5899 5899 5898 5897 5896 5895 5894 5893 5892 5891 5890 5889 5887 5886 5886 5885 5885 5885 5885
5904 5904 5904 5904 5904 5903 5903 5903 5903 5903 5903 5903 5903 5902 5902 5902 5902 5902 5901 5901 5901 5900 5900 5899 5899 5898 5897 5896 5895 5894 5893 5892 5891 5890 5889 5888 5886 5885 5885 5884 5884 5884 5883
5905 5905 5905 5904 5904 5904 5904 5904 5904 5903 5903 5903 5903 5903 5902 5902 5901 5901 5901 5900 5900 5900 5899 5899 5898 5897 5897 5896 5895 5894 5892 5891 5890 5889 5888 5887 5885 5884 5884 5883 5883 5882 5882
5907 5906 5906 5905 5905 5905 5904 5904 5904 5904 5904 5903 5903 5902 5902 5901 5901 5901 5900 5899 5899 5899 5898 5898 5897 5896 5896 5895 5894 5893 5892 5890 5889 5887 5886 5885 5884 5883 5882 5882 5881 5881 5880
5908 5907 5907 5906 5906 5905 5904 5904 5904 5904 5904 5903 5902 5902 5901 5901 5901 5900 5899 5899 5898 5898 5897 5897 5896 5896 5895 5894 5893 5892 5891 5889 5888 5886 5885 5884 5883 5882 5881 5880 5879 5879 5879
5909 5908 5908 5907 5906 5906 5905 5904 5904 5904 5903 5903 5902 5902 5901 5900 5900 5900 5899 5898 5897 5897 5896 5896 5895 5894 5894 5893 5892 5891 5889 5888 5887 5885 5884 5882 5881 5880 5879 5878 5878 5877 5877
5909 5909 5908 5908 5907 5906 5905 5904 5904 5904 5903 5903 5902 5902 5901 5900 5900 5899 5898 5897 5896 5895 5895 5894 5894 5893 5892 5890 5889 5889 5888 5887 5885 5884 5882 5881 5879 5878 5877 5877 5876 5876 5875
5910 5909 5909 5908 5907 5906 5905 5904 5904 5904 5903 5903 5902 5902 5901 5900 5899 5898 5897 5896 5895 5894 5894 5893 5892 5891 5890 5889 5888 5887 5886 5885 5884 5882 5881 5879 5878 5876 5875 5875 5874 5874 5873
5910 5909 5908 5908 5907 5906 5905 5904 5904 5903 5903 5902 5902 5901 5900 5899 5898 5897 5896 5895 5894 5893 5892 5891 5891 5890 5889 5888 5887 5885 5884 5883 5882 5881 5879 5878 5876 5875 5874 5873 5872 5871 5871
5910 5909 5908 5908 5907 5907 5906 5905 5904 5904 5903 5902 5901 5900 5899 5898 5897 5896 5895 5894 5892 5891 5890 5890 5889 5888 5887 5886 5885 5884 5883 5881 5880 5879 5878 5876 5875 5874 5872 5870 5870 5869 5868
5910 5909 5909 5908 5907 5907 5906 5905 5904 5903 5902 5901 5900 5899 5898 5897 5895 5894 5893 5892 5890 5889 5888 5887 5886 5885 5885 5884 5883 5882 5880 5879 5878 5877 5875 5874 5873 5871 5869 5868 5867 5866 5865
5910 5909 5908 5908 5907 5906 5906 5905 5904 5903 5902 5901 5899 5898 5897 5895 5894 5893 5891 5890 5888 5887 5886 5885 5884 5883 5882 5881 5880 5879 5878 5876 5875 5874 5873 5871 5869 5868 5866 5864 5864 5863 5861
5910 5909 5908 5907 5907 5906 5905 5904 5903 5902 5901 5900 5899 5897 5895 5894 5892 5891 5889 5887 5886 5885 5884 5883 5882 5881 5880 5879 5878 5876 5875 5874 5873 5871 5870 5868 5866 5865 5863 5862 5861 5859 5858
5910 5909 5908 5907 5906 5905 5904 5903 5902 5901 5900 5899 5897 5895 5893 5892 5890 5889 5887 5886 5884 5883 5882 5881 5879 5878 5877 5876 5875 5874 5873 5872 5869 5868 5867 5865 5863 5862 5860 5858 5857 5855 5854
5910 5909 5908 5907 5906 5905 5903 5902 5901 5900 5899 5897 5896 5894 5892 5890 5888 5887 5885 5884 5882 5881 5880 5878 5877 5876 5874 5873 5872 5871 5870 5868 5867 5865 5863 5861 5860 5858 5856 5854 5852 5851 5849
5911 5909 5908 5907 5905 5903 5902 5901 5900 5899 5897 5896 5894 5892 5890 5888 5886 5885 5883 5882 5880 5879 5877 5875 5874 5873 5872 5870 5869 5867 5866 5865 5863 5862 5860 5858 5856 5854 5853 5851 5849 5847 5845
5910 5908 5907 5905 5904 5902 5901 5899 5898 5897 5896 5894 5892 5891 5888 5886 5884 5883 5881 5879 5878 5876 5874 5872 5871 5870 5868 5867 5865 5863 5862 5860 5858 5857 5856 5854 5852 5850 5848 5846 5844 5842 5840
5908 5907 5905 5904 5902 5900 5899 5898 5896 5895 5893 5892 5890 5888 5886 5884 5882 5880 5878 5877 5875 5873 5871 5870 5868 5867 5865 5863 5861 5859 5858 5856 5854 5852 5851 5849 5847 5845 5843 5840 5838 5836 5834
Wind_Speed
8 7 7 7 7 7 8 7 7 7 6 6 5 5 5 5 5 5 4 4 3 3 3 2 2 1 1 1 1 1 1 1 1 1 1 2 2 2 2 2 1 2 2
8 7 7 7 7 7 7 7 6 6 6 6 6 5 5 5 5 4 4 3 3 3 3 3 2 2 2 1 1 1 1 2 1 0 1 1 1 2 3 3 2 2 3
8 8 7 6 7 7 7 7 6 6 5 5 5 5 4 4 5 4 4 3 3 3 3 3 3 2 3 3 3 2 2 2 2 2 1 1 1 2 2 3 3 3 3
8 8 7 6 7 6 6 6 6 6 5 5 4 5 5 5 5 4 3 3 3 3 3 2 2 3 3 3 3 3 2 2 2 3 3 2 2 3 2 3 3 4 4
8 8 7 6 6 6 6 6 7 7 6 5 5 5 5 5 4 4 3 3 2 2 2 1 2 2 3 3 2 2 3 3 2 3 3 3 2 3 3 3 3 3 3
9 8 7 6 6 6 6 6 6 6 6 5 5 5 4 4 3 3 2 2 2 1 1 1 1 1 2 2 1 2 3 3 3 3 4 4 3 3 3 3 4 3 3
8 7 7 6 7 6 6 6 6 6 5 5 5 4 4 3 3 3 2 1 1 1 1 2 1 1 1 2 2 3 3 4 4 4 4 4 4 3 3 4 4 4 3
8 8 7 7 6 6 6 6 6 6 5 5 5 4 4 3 2 2 1 0 0 1 1 2 2 2 2 2 3 4 4 4 5 4 4 5 5 3 3 3 4 4 5
9 8 8 7 6 6 5 5 5 5 5 4 4 3 3 3 2 0 0 1 0 1 1 1 2 2 3 3 4 4 5 4 4 5 5 6 6 4 4 4 4 4 5
9 8 7 6 6 6 5 6 5 5 4 4 4 3 2 3 3 2 2 2 1 1 1 1 2 3 3 4 4 4 5 5 5 5 5 5 5 4 4 4 5 5 6
8 8 7 6 6 5 5 5 5 5 5 4 4 3 2 3 3 2 2 2 2 2 2 2 3 3 4 4 4 5 5 5 5 6 5 5 5 4 4 5 6 6 7
7 7 7 6 6 5 4 4 4 5 5 5 4 3 3 3 3 2 2 2 1 2 2 2 4 4 4 4 5 6 5 5 6 6 5 5 5 5 5 5 5 5 6
7 6 5 5 6 6 5 4 4 5 5 5 5 4 4 3 3 3 2 2 2 3 3 3 4 4 4 5 5 6 6 6 6 6 6 6 6 5 5 4 4 5 5
7 7 6 5 6 6 5 4 4 4 4 4 4 3 3 4 3 3 3 3 3 4 4 4 4 4 5 6 6 7 8 7 7 7 7 7 6 6 4 4 4 5 5
6 6 6 5 5 6 5 5 4 4 4 4 4 4 3 3 4 4 4 4 4 5 5 5 5 6 6 7 7 8 8 8 7 8 7 7 6 6 5 5 6 6 6
6 6 5 6 5 5 6 5 5 4 5 5 5 4 3 3 3 4 4 4 5 5 5 5 6 6 7 7 6 7 8 8 8 8 8 8 7 6 5 6 7 7 8
7 6 6 5 5 6 6 5 5 5 5 6 6 5 4 4 4 5 5 5 6 6 6 6 6 7 7 7 7 7 7 7 8 8 8 8 8 7 6 6 7 8 9
7 7 7 7 6 6 6 6 5 5 6 6 6 6 5 5 5 6 6 6 7 7 7 7 7 7 7 8 8 8 8 8 9 8 9 9 8 8 7 7 8 9 11
7 7 7 6 6 6 6 6 6 6 6 7 7 7 6 6 6 7 7 7 8 8 8 9 9 8 8 9 9 9 10 10 10 10 10 9 9 9 9 9 9 10 11
7 7 6 5 6 6 6 6 7 6 6 7 7 7 7 7 7 8 8 9 9 9 9 9 9 9 9 9 9 10 10 11 11 11 10 11 11 10 10 10 11 11 12
8 7 7 5 5 6 7 7 7 7 7 7 8 8 8 8 9 9 10 10 9 9 9 10 10 10 10 10 10 10 11 11 11 11 11 11 11 11 11 12 13 14 14
8 8 7 6 6 6 7 7 7 7 8 8 9 10 10 9 10 11 10 10 9 9 10 10 10 10 11 11 11 10 11 13 12 13 12 12 11 11 12 13 14 15 15
8 8 8 7 8 7 7 7 7 7 8 9 10 11 12 11 12 11 10 11 10 10 11 11 11 11 12 12 12 12 13 13 14 14 14 13 13 14 14 15 15 15 16
8 8 8 8 9 8 7 7 7 8 9 9 10 11 12 12 12 11 11 11 11 11 12 12 12 11 13 13 14 14 15 15 15 16 16 15 15 16 16 17 17 17 18
8 8 8 10 10 9 8 8 8 9 9 10 11 11 12 12 12 11 11 11 12 12 12 11 12 12 13 14 15 16 17 17 16 16 17 17 17 17 18 19 19 19 20
9 9 10 10 10 8 8 9 9 9 10 10 11 11 12 12 12 11 11 12 12 12 12 12 12 13 14 15 16 17 18 17 17 17 18 19 19 19 20 20 21 21 21
Wind_Direction
75 82 89 88 85 86 88 89 88 93 108 120 125 126 135 138 133 126 126 126 117 114 110 95 79 89 90 261 251 252 289 276 221 246 274 277 237 240 262 291 274 224 212
75 78 88 92 88 89 90 91 92 92 102 113 118 118 121 134 135 124 109 102 103 106 94 79 67 67 60 56 60 78 34 27 2 293 293 294 258 257 258 263 255 236 217
73 74 81 87 87 88 86 89 92 88 96 109 113 114 112 122 131 123 110 94 100 109 106 95 83 80 70 61 57 63 44 18 4 354 308 296 291 279 257 247 250 246 234
72 72 78 83 87 85 85 86 85 82 91 103 112 115 113 116 120 120 117 116 118 125 120 106 90 86 77 65 60 55 37 6 354 342 320 294 292 272 262 262 260 251 249
70 71 76 79 86 85 84 81 79 80 84 92 107 115 116 117 112 111 115 124 133 129 121 112 97 87 71 54 42 26 15 11 1 349 330 314 306 293 281 272 272 269 259
70 74 75 76 84 86 84 82 83 84 84 88 99 107 112 114 117 120 109 93 120 94 73 77 98 89 68 55 32 1 348 349 333 328 330 329 316 304 290 279 276 274 274
71 74 75 79 83 86 84 85 86 86 85 91 95 101 107 109 117 113 106 96 92 48 39 23 17 17 17 22 4 350 346 342 340 331 331 326 320 320 308 288 280 276 274
70 75 80 83 84 84 83 81 83 81 80 89 95 96 94 93 106 117 113 84 356 24 23 10 348 339 342 345 338 333 339 338 338 334 325 319 312 312 311 301 283 271 264
73 80 83 80 79 79 78 80 80 74 70 78 81 76 74 73 77 112 264 285 284 16 20 6 350 345 349 336 332 332 337 339 340 341 335 326 324 313 305 291 282 276 267
75 77 82 80 78 77 74 75 72 69 64 67 62 49 45 37 32 14 325 294 264 280 321 342 346 341 342 343 338 330 330 330 332 335 326 324 326 308 303 293 279 283 274
72 72 76 75 74 75 73 68 63 57 56 56 48 38 28 23 23 12 344 319 270 259 282 316 334 337 338 339 344 338 332 328 323 329 323 320 322 316 302 290 282 283 283
64 63 66 65 61 60 58 56 59 56 55 50 46 43 35 29 28 16 355 343 310 287 299 313 324 332 338 346 344 341 339 337 327 320 318 320 319 316 302 291 283 283 287
58 57 54 49 49 46 45 49 56 55 53 46 42 38 36 34 24 9 3 355 337 320 312 315 323 329 325 327 333 334 335 333 331 323 320 316 313 303 295 298 293 287 290
57 58 59 49 48 48 47 50 44 43 41 35 33 30 27 28 17 7 357 345 331 325 315 307 308 314 313 316 320 324 328 329 329 327 318 314 316 308 293 292 296 294 288
44 52 53 51 51 42 39 47 45 31 31 26 26 35 32 25 18 8 354 343 331 324 318 311 305 307 314 319 322 321 321 323 327 328 328 323 320 313 296 289 294 297 300
43 43 40 45 40 34 34 43 43 37 29 20 23 16 19 17 3 356 351 346 338 328 319 316 309 306 307 309 314 318 318 319 323 329 331 328 322 316 304 292 292 292 296
34 28 26 32 26 21 28 39 39 36 27 15 3 358 2 356 351 350 342 342 342 335 322 310 307 309 307 303 302 310 318 320 323 326 327 326 322 314 301 297 295 291 290
31 28 23 20 17 19 21 21 21 18 13 7 2 357 347 344 346 343 337 331 326 324 319 312 309 310 311 309 308 311 312 312 315 318 320 319 316 309 301 292 289 288 287
22 20 18 14 18 15 8 0 1 2 3 4 3 360 351 343 338 336 332 328 323 319 313 310 308 306 307 309 310 312 311 310 312 313 312 311 309 305 298 293 288 286 288
12 12 13 9 7 1 359 359 358 356 360 359 354 349 342 337 331 329 328 326 323 317 313 310 306 303 306 310 310 313 315 312 313 312 312 310 309 306 301 291 292 290 289
10 11 7 359 357 2 357 352 348 345 348 347 345 339 335 330 325 322 321 322 319 314 314 312 310 307 306 308 310 312 314 311 311 310 310 311 308 306 301 297 295 293 288
5 8 8 7 0 350 342 339 341 340 341 339 336 335 332 328 326 325 321 321 317 311 311 310 309 306 309 312 310 310 312 311 308 308 306 305 304 304 301 296 294 291 289
5 4 4 357 349 336 328 327 329 331 334 333 334 334 332 330 329 324 322 321 317 315 314 310 305 305 311 314 310 308 309 308 305 304 307 307 302 300 300 298 296 296 293
355 353 349 347 344 338 329 323 321 322 323 324 327 329 329 326 326 323 320 316 315 315 314 310 308 305 308 309 305 304 306 304 303 299 300 302 301 297 296 298 297 295 293
340 336 334 335 333 333 333 327 321 317 318 319 323 325 326 323 319 319 318 314 313 312 312 310 308 304 305 306 304 304 303 300 300 298 300 300 299 297 296 296 295 292 291
331 328 325 328 329 332 331 327 322 319 318 319 320 322 324 326 325 321 320 319 319 316 314 311 307 303 303 305 304 302 300 298 299 299 298 299 299 298 299 299 296 292 290